,,Stat1,,Stat2,,Stat3,,Stat4,,Wind1,,Wind1,
time,status,PR1M_SUM,status,RH1M_AVG,status,SR1M_AVG,status,TA1M_AVG,status,W1dAve1m,status,W1sAve1m,
1999-10-17, 00:01:00,VALID,0,VALID,98.8444,VALID,0,VALID,19.74,VALID,265,VALID,0,
1999-10-17, 00:02:00,VALID,0,VALID,98.9079,VALID,0,VALID,19.7696,VALID,264,VALID,0,
1999-10-17, 00:03:00,VALID,0,VALID,98.9346,VALID,0,VALID,19.7858,VALID,203,VALID,0,
1999-10-17, 00:04:00,VALID,0,VALID,98.9258,VALID,0,VALID,19.7987,VALID,186,VALID,0,
1999-10-17, 00:05:01,VALID,0,VALID,98.9029,VALID,0,VALID,19.8052,VALID,173,VALID,0,
1999-10-17, 00:06:01,VALID,0,VALID,98.8812,VALID,-0.0169808,VALID,19.8047,VALID,153,VALID,0,
1999-10-17, 00:07:00,VALID,0,VALID,98.8787,VALID,0,VALID,19.8149,VALID,149,VALID,0,
1999-10-17, 00:08:00,VALID,0,VALID,98.8647,VALID,-0.0169808,VALID,19.8211,VALID,149,VALID,0,
1999-10-17, 00:09:00,VALID,0,VALID,98.8825,VALID,0,VALID,19.851,VALID,148,VALID,0,
1999-10-17, 00:10:00,VALID,0,VALID,98.8812,VALID,0,VALID,19.8502,VALID,148,VALID,0,
1999-10-17, 00:11:00,VALID,0,VALID,98.9016,VALID,-0.0169808,VALID,19.8763,VALID,148,VALID,0,
1999-10-17, 00:12:00,VALID,0,VALID,98.9067,VALID,0,VALID,19.883,VALID,148,VALID,0,
1999-10-17, 00:13:00,VALID,0,VALID,98.9105,VALID,0.0169808,VALID,19.8825,VALID,222,VALID,0,
1999-10-17, 00:14:00,VALID,0,VALID,98.9448,VALID,0,VALID,19.9022,VALID,236,VALID,0,
1999-10-17, 00:15:00,VALID,0,VALID,98.9575,VALID,0,VALID,19.9181,VALID,236,VALID,0,
1999-10-17, 00:16:00,VALID,0,VALID,98.9677,VALID,0,VALID,19.9214,VALID,236,VALID,0,
1999-10-17, 00:17:01,VALID,0,VALID,98.9957,VALID,0,VALID,19.9437,VALID,236,VALID,0,
1999-10-17, 00:18:00,VALID,0,VALID,98.9474,VALID,0,VALID,19.9472,VALID,236,VALID,0,
1999-10-17, 00:19:00,VALID,0,VALID,98.9118,VALID,0.0169808,VALID,19.951,VALID,238,VALID,0,
1999-10-17, 00:20:00,VALID,0,VALID,98.9092,VALID,-0.0169808,VALID,19.9413,VALID,264,VALID,0,
1999-10-17, 00:21:00,VALID,0,VALID,98.8812,VALID,0.0169808,VALID,19.937,VALID,292,VALID,0,
1999-10-17, 00:22:00,VALID,0,VALID,98.899,VALID,0,VALID,19.9378,VALID,291,VALID,0,
1999-10-17, 00:23:00,VALID,0,VALID,98.9346,VALID,0.0169808,VALID,19.9343,VALID,288,VALID,0,
1999-10-17, 00:24:00,VALID,0,VALID,98.9614,VALID,0.0169808,VALID,19.9443,VALID,292,VALID,0,
1999-10-17, 00:25:00,VALID,0,VALID,98.9715,VALID,0,VALID,19.9375,VALID,298,VALID,0,
1999-10-17, 00:26:00,VALID,0,VALID,98.9817,VALID,0,VALID,19.934,VALID,298,VALID,0,
1999-10-17, 00:27:00,VALID,0,VALID,99.0135,VALID,0.0169808,VALID,19.9475,VALID,297,VALID,0,
1999-10-17, 00:28:01,VALID,0,VALID,99.0275,VALID,0.0169808,VALID,19.9403,VALID,297,VALID,0,
1999-10-17, 00:29:00,VALID,0,VALID,99.0237,VALID,0,VALID,19.947,VALID,297,VALID,0,
1999-10-17, 00:30:00,VALID,0,VALID,99.0389,VALID,0,VALID,19.9373,VALID,297,VALID,0,
1999-10-17, 00:31:00,VALID,0,VALID,99.0211,VALID,0,VALID,19.9443,VALID,297,VALID,0,
1999-10-17, 00:32:00,VALID,0,VALID,99.0211,VALID,0,VALID,19.944,VALID,297,VALID,0,
1999-10-17, 00:33:00,VALID,0,VALID,99.0224,VALID,0,VALID,19.9415,VALID,297,VALID,0,
1999-10-17, 00:34:00,VALID,0,VALID,99.016,VALID,0,VALID,19.935,VALID,297,VALID,0,
1999-10-17, 00:35:00,VALID,0,VALID,99.0097,VALID,0.0169808,VALID,19.9176,VALID,297,VALID,0,
1999-10-17, 00:36:00,VALID,0,VALID,99.0275,VALID,0,VALID,19.9345,VALID,326,VALID,0,
1999-10-17, 00:37:00,VALID,0,VALID,99.0377,VALID,0,VALID,19.9343,VALID,328,VALID,0,
1999-10-17, 00:38:00,VALID,0,VALID,99.016,VALID,0,VALID,19.9278,VALID,328,VALID,0,
1999-10-17, 00:39:01,VALID,0,VALID,99.0262,VALID,0.0339617,VALID,19.9311,VALID,328,VALID,0,
1999-10-17, 00:40:00,VALID,0,VALID,99.0046,VALID,0.0339617,VALID,19.9042,VALID,328,VALID,0,
1999-10-17, 00:41:00,VALID,0,VALID,99.0262,VALID,0,VALID,19.9316,VALID,316,VALID,0,
1999-10-17, 00:42:00,VALID,0,VALID,99.0249,VALID,0.0169808,VALID,19.9243,VALID,274,VALID,0,
1999-10-17, 00:43:00,VALID,0,VALID,99.0326,VALID,0.0339617,VALID,19.9243,VALID,274,VALID,0,
1999-10-17, 00:44:00,VALID,0,VALID,99.0644,VALID,0.0169808,VALID,19.9403,VALID,274,VALID,0,
1999-10-17, 00:45:00,VALID,0,VALID,99.0923,VALID,0,VALID,19.9637,VALID,218,VALID,0,
1999-10-17, 00:46:00,VALID,0,VALID,99.1101,VALID,0,VALID,19.9796,VALID,172,VALID,0,
1999-10-17, 00:47:00,VALID,0,VALID,99.1101,VALID,0,VALID,19.986,VALID,152,VALID,0,
1999-10-17, 00:48:00,VALID,0,VALID,99.1063,VALID,-0.0169808,VALID,19.9923,VALID,152,VALID,0,
1999-10-17, 00:49:01,VALID,0,VALID,99.0885,VALID,0,VALID,20.0022,VALID,151,VALID,0,
1999-10-17, 00:50:01,VALID,0,VALID,99.0898,VALID,0.0169808,VALID,19.999,VALID,150,VALID,0,
1999-10-17, 00:51:00,VALID,0,VALID,99.0847,VALID,0,VALID,20.0149,VALID,150,VALID,0,
1999-10-17, 00:52:00,VALID,0,VALID,99.0911,VALID,0,VALID,20.0214,VALID,139,VALID,0,
1999-10-17, 00:53:00,VALID,0,VALID,99.0402,VALID,0.0169808,VALID,20.0147,VALID,104,VALID,0,
1999-10-17, 00:54:00,VALID,0,VALID,98.9868,VALID,0,VALID,19.9958,VALID,100,VALID,0,
1999-10-17, 00:55:00,VALID,0,VALID,98.9258,VALID,-0.0169808,VALID,19.986,VALID,96,VALID,0,
1999-10-17, 00:56:00,VALID,0,VALID,98.9143,VALID,-0.0339617,VALID,19.9766,VALID,96,VALID,0,
1999-10-17, 00:57:00,VALID,0,VALID,98.8876,VALID,-0.0169808,VALID,19.9836,VALID,88,VALID,0,
1999-10-17, 00:58:00,VALID,0,VALID,98.8698,VALID,-0.0169808,VALID,19.9669,VALID,90,VALID,0,
1999-10-17, 00:59:00,VALID,0,VALID,98.8139,VALID,-0.0339617,VALID,19.9378,VALID,88,VALID,0,
1999-10-17, 01:00:00,VALID,0,VALID,98.8367,VALID,-0.0339617,VALID,19.9345,VALID,92,VALID,0,
1999-10-17, 01:01:01,VALID,0,VALID,98.81,VALID,-0.0169808,VALID,19.9119,VALID,90,VALID,0.0199653,
1999-10-17, 01:02:00,VALID,0,VALID,98.7897,VALID,-0.0169808,VALID,19.8888,VALID,93,VALID,1.14961,
1999-10-17, 01:03:00,VALID,0,VALID,98.8507,VALID,-0.0169808,VALID,19.8957,VALID,90,VALID,0.99379,
1999-10-17, 01:04:00,VALID,0,VALID,98.8584,VALID,-0.0169808,VALID,19.8987,VALID,95,VALID,1.00555,
1999-10-17, 01:05:00,VALID,0,VALID,98.8355,VALID,-0.0169808,VALID,19.889,VALID,92,VALID,0.902127,
1999-10-17, 01:06:00,VALID,0,VALID,98.8253,VALID,0,VALID,19.8694,VALID,87,VALID,0.890179,
1999-10-17, 01:07:00,VALID,0,VALID,98.8533,VALID,0,VALID,19.8726,VALID,105,VALID,0.606908,
1999-10-17, 01:08:00,VALID,0,VALID,98.8316,VALID,-0.0169808,VALID,19.8768,VALID,103,VALID,0.773849,
1999-10-17, 01:09:00,VALID,0,VALID,98.7973,VALID,0.0169808,VALID,19.8569,VALID,120,VALID,0.774282,
1999-10-17, 01:10:00,VALID,0,VALID,98.7604,VALID,0,VALID,19.8271,VALID,118,VALID,0.916118,
1999-10-17, 01:11:00,VALID,0,VALID,98.7681,VALID,0,VALID,19.8236,VALID,135,VALID,0.704359,
1999-10-17, 01:12:01,VALID,0,VALID,98.7541,VALID,0,VALID,19.8211,VALID,114,VALID,0.830031,
1999-10-17, 01:13:00,VALID,0,VALID,98.7604,VALID,0.0169808,VALID,19.8305,VALID,131,VALID,0.719141,
1999-10-17, 01:14:00,VALID,0,VALID,98.7477,VALID,0.0169808,VALID,19.8174,VALID,119,VALID,0.63528,
1999-10-17, 01:15:00,VALID,0,VALID,98.7248,VALID,0,VALID,19.8243,VALID,127,VALID,0.599023,
1999-10-17, 01:16:00,VALID,0,VALID,98.7121,VALID,0,VALID,19.8044,VALID,131,VALID,0.496962,
1999-10-17, 01:17:00,VALID,0,VALID,98.6943,VALID,0,VALID,19.8052,VALID,128,VALID,0.158594,
1999-10-17, 01:18:00,VALID,0,VALID,98.6587,VALID,0,VALID,19.7917,VALID,126,VALID,0.4375,
1999-10-17, 01:19:00,VALID,0,VALID,98.6358,VALID,0,VALID,19.7718,VALID,138,VALID,0.251234,
1999-10-17, 01:20:00,VALID,0,VALID,98.646,VALID,0,VALID,19.7654,VALID,136,VALID,0.598307,
1999-10-17, 01:21:00,VALID,0,VALID,98.6091,VALID,0,VALID,19.7564,VALID,138,VALID,0.509598,
1999-10-17, 01:22:00,VALID,0,VALID,98.6002,VALID,0.0169808,VALID,19.7664,VALID,137,VALID,0.347245,
1999-10-17, 01:23:01,VALID,0,VALID,98.5761,VALID,0,VALID,19.7564,VALID,134,VALID,0.351563,
1999-10-17, 01:24:00,VALID,0,VALID,98.5837,VALID,0,VALID,19.7567,VALID,132,VALID,0.162584,
1999-10-17, 01:25:00,VALID,0,VALID,98.5722,VALID,0,VALID,19.7335,VALID,130,VALID,0,
1999-10-17, 01:26:00,VALID,0,VALID,98.5964,VALID,-0.0849042,VALID,19.745,VALID,119,VALID,0,
1999-10-17, 01:27:00,VALID,0,VALID,98.5646,VALID,-0.0849042,VALID,19.7387,VALID,114,VALID,0,
1999-10-17, 01:28:00,VALID,0,VALID,98.5519,VALID,-0.101885,VALID,19.7325,VALID,161,VALID,0,
1999-10-17, 01:29:00,VALID,0,VALID,98.5341,VALID,-0.101885,VALID,19.7129,VALID,205,VALID,0,
1999-10-17, 01:30:00,VALID,0,VALID,98.4896,VALID,-0.118866,VALID,19.6964,VALID,235,VALID,0,
1999-10-17, 01:31:00,VALID,0,VALID,98.4375,VALID,-0.0849042,VALID,19.6676,VALID,228,VALID,0,
1999-10-17, 01:32:00,VALID,0,VALID,98.4629,VALID,-0.101885,VALID,19.6646,VALID,232,VALID,0,
1999-10-17, 01:33:01,VALID,0,VALID,98.5036,VALID,-0.118866,VALID,19.6223,VALID,234,VALID,0,
1999-10-17, 01:34:01,VALID,0,VALID,98.571,VALID,-0.135847,VALID,19.6158,VALID,225,VALID,0,
1999-10-17, 01:35:00,VALID,0,VALID,98.6803,VALID,-0.118866,VALID,19.6031,VALID,233,VALID,0,
1999-10-17, 01:36:00,VALID,0,VALID,98.7719,VALID,-0.101885,VALID,19.5997,VALID,232,VALID,0,
1999-10-17, 01:37:00,VALID,0,VALID,98.8456,VALID,-0.118866,VALID,19.577,VALID,227,VALID,0,
1999-10-17, 01:38:00,VALID,0,VALID,98.9194,VALID,-0.118866,VALID,19.5608,VALID,233,VALID,0,
1999-10-17, 01:39:00,VALID,0,VALID,98.997,VALID,-0.101885,VALID,19.5481,VALID,235,VALID,0,
1999-10-17, 01:40:00,VALID,0,VALID,99.0415,VALID,-0.135847,VALID,19.5156,VALID,233,VALID,0,
1999-10-17, 01:41:00,VALID,0,VALID,99.1356,VALID,0.0679233,VALID,19.5066,VALID,235,VALID,0,
1999-10-17, 01:42:00,VALID,0,VALID,99.2246,VALID,0.101885,VALID,19.5027,VALID,235,VALID,0,
1999-10-17, 01:43:00,VALID,0,VALID,99.2754,VALID,0.0849042,VALID,19.4997,VALID,233,VALID,0,
1999-10-17, 01:44:00,VALID,0,VALID,99.3301,VALID,0.101885,VALID,19.4833,VALID,233,VALID,0,
1999-10-17, 01:45:00,VALID,0,VALID,99.3937,VALID,0.101885,VALID,19.4932,VALID,231,VALID,0,
1999-10-17, 01:46:00,VALID,0,VALID,99.4217,VALID,0.101885,VALID,19.4967,VALID,220,VALID,0,
1999-10-17, 01:47:00,VALID,0,VALID,99.4547,VALID,0.0849042,VALID,19.4907,VALID,217,VALID,0,
1999-10-17, 01:48:00,VALID,0,VALID,99.5361,VALID,0.101885,VALID,19.4939,VALID,223,VALID,0,
1999-10-17, 01:49:00,VALID,0,VALID,99.5679,VALID,0.0849042,VALID,19.4775,VALID,219,VALID,0,
1999-10-17, 01:50:00,VALID,0,VALID,99.573,VALID,0.101885,VALID,19.4706,VALID,211,VALID,0,
1999-10-17, 01:51:00,VALID,0,VALID,99.5946,VALID,0.0679233,VALID,19.4512,VALID,197,VALID,0,
1999-10-17, 01:52:00,VALID,0,VALID,99.6188,VALID,0.0679233,VALID,19.4517,VALID,210,VALID,0,
1999-10-17, 01:53:00,VALID,0,VALID,99.6328,VALID,0.0339617,VALID,19.439,VALID,207,VALID,0,
1999-10-17, 01:54:00,VALID,0,VALID,99.6289,VALID,0.0849042,VALID,19.429,VALID,208,VALID,0,
1999-10-17, 01:55:01,VALID,0,VALID,99.6671,VALID,0.101885,VALID,19.4193,VALID,209,VALID,0,
1999-10-17, 01:56:00,VALID,0,VALID,99.6696,VALID,0.0339617,VALID,19.4138,VALID,211,VALID,0,
1999-10-17, 01:57:00,VALID,0,VALID,99.6747,VALID,0,VALID,19.3977,VALID,214,VALID,0,
1999-10-17, 01:58:00,VALID,0,VALID,99.7078,VALID,0,VALID,19.3815,VALID,212,VALID,0,
1999-10-17, 01:59:00,VALID,0,VALID,99.7345,VALID,0,VALID,19.385,VALID,202,VALID,0,
1999-10-17, 02:00:00,VALID,0,VALID,99.7345,VALID,0,VALID,19.3817,VALID,207,VALID,0,
1999-10-17, 02:01:00,VALID,0,VALID,99.7599,VALID,0,VALID,19.3753,VALID,210,VALID,0,
1999-10-17, 02:02:00,VALID,0,VALID,99.7752,VALID,0.0169808,VALID,19.3854,VALID,210,VALID,0,
1999-10-17, 02:03:00,VALID,0,VALID,99.7815,VALID,0,VALID,19.3817,VALID,210,VALID,0,
1999-10-17, 02:04:00,VALID,0,VALID,99.7625,VALID,0.0339617,VALID,19.3685,VALID,204,VALID,0,
1999-10-17, 02:05:00,VALID,0,VALID,99.7497,VALID,0.0509425,VALID,19.3499,VALID,187,VALID,0,
1999-10-17, 02:06:00,VALID,0,VALID,99.7574,VALID,0.0339617,VALID,19.3238,VALID,186,VALID,0,
1999-10-17, 02:07:00,VALID,0,VALID,99.8044,VALID,0,VALID,19.3166,VALID,200,VALID,0,
1999-10-17, 02:08:00,VALID,0,VALID,99.868,VALID,0.0169808,VALID,19.3399,VALID,217,VALID,0,
1999-10-17, 02:09:00,VALID,0,VALID,99.8858,VALID,0,VALID,19.3494,VALID,213,VALID,0,
1999-10-17, 02:10:00,VALID,0,VALID,99.8795,VALID,0,VALID,19.3621,VALID,208,VALID,0,
1999-10-17, 02:11:00,VALID,0,VALID,99.8896,VALID,0.0339617,VALID,19.3651,VALID,208,VALID,0,
1999-10-17, 02:12:00,VALID,0,VALID,99.8871,VALID,0.0339617,VALID,19.3584,VALID,193,VALID,0,
1999-10-17, 02:13:00,VALID,0,VALID,99.8477,VALID,0.0339617,VALID,19.3267,VALID,176,VALID,0,
1999-10-17, 02:14:00,VALID,0,VALID,99.7599,VALID,0.0339617,VALID,19.2429,VALID,161,VALID,0,
1999-10-17, 02:15:00,VALID,0,VALID,99.7256,VALID,0,VALID,19.1777,VALID,158,VALID,0,
1999-10-17, 02:16:00,VALID,0,VALID,99.7472,VALID,0.0169808,VALID,19.1586,VALID,158,VALID,0,
1999-10-17, 02:17:00,VALID,0,VALID,99.7637,VALID,0,VALID,19.1427,VALID,169,VALID,0,
1999-10-17, 02:18:00,VALID,0,VALID,99.7815,VALID,0,VALID,19.1262,VALID,182,VALID,0,
1999-10-17, 02:19:00,VALID,0,VALID,99.9062,VALID,0,VALID,19.1521,VALID,192,VALID,0,
1999-10-17, 02:20:00,VALID,0,VALID,99.9596,VALID,0.0169808,VALID,19.1979,VALID,194,VALID,0,
1999-10-17, 02:21:00,VALID,0,VALID,99.9456,VALID,0,VALID,19.2173,VALID,194,VALID,0,
1999-10-17, 02:22:00,VALID,0,VALID,99.9443,VALID,0.0169808,VALID,19.2175,VALID,192,VALID,0,
1999-10-17, 02:23:00,VALID,0,VALID,99.9822,VALID,0.0169808,VALID,19.2263,VALID,195,VALID,0,
1999-10-17, 02:24:00,VALID,0,VALID,99.988,VALID,0,VALID,19.2727,VALID,199,VALID,0,
1999-10-17, 02:25:00,VALID,0,VALID,99.9837,VALID,0,VALID,19.2752,VALID,207,VALID,0,
1999-10-17, 02:26:00,VALID,0,VALID,99.986,VALID,-0.0849042,VALID,19.2964,VALID,212,VALID,0,
1999-10-17, 02:27:00,VALID,0,VALID,99.9697,VALID,-0.0849042,VALID,19.3123,VALID,217,VALID,0,
1999-10-17, 02:28:00,VALID,0,VALID,99.9329,VALID,-0.101885,VALID,19.3123,VALID,214,VALID,0,
1999-10-17, 02:29:00,VALID,0,VALID,99.9189,VALID,-0.101885,VALID,19.2862,VALID,213,VALID,0,
1999-10-17, 02:30:00,VALID,0,VALID,99.9151,VALID,-0.101885,VALID,19.2735,VALID,216,VALID,0,
1999-10-17, 02:31:00,VALID,0,VALID,99.9163,VALID,-0.101885,VALID,19.2677,VALID,211,VALID,0,
1999-10-17, 02:32:00,VALID,0,VALID,99.9214,VALID,-0.118866,VALID,19.2379,VALID,209,VALID,0,
1999-10-17, 02:33:00,VALID,0,VALID,99.9354,VALID,-0.101885,VALID,19.2351,VALID,206,VALID,0,
1999-10-17, 02:34:00,VALID,0,VALID,99.9557,VALID,-0.101885,VALID,19.2252,VALID,206,VALID,0,
1999-10-17, 02:35:00,VALID,0,VALID,99.9784,VALID,-0.101885,VALID,19.225,VALID,207,VALID,0,
1999-10-17, 02:36:00,VALID,0,VALID,100,VALID,-0.101885,VALID,19.2478,VALID,214,VALID,0,
1999-10-17, 02:37:00,VALID,0,VALID,100,VALID,-0.101885,VALID,19.2608,VALID,208,VALID,0,
1999-10-17, 02:38:00,VALID,0,VALID,100,VALID,-0.0849042,VALID,19.273,VALID,197,VALID,0,
1999-10-17, 02:39:00,VALID,0,VALID,100,VALID,-0.101885,VALID,19.2804,VALID,191,VALID,0,
1999-10-17, 02:40:00,VALID,0,VALID,100,VALID,-0.0849042,VALID,19.2964,VALID,218,VALID,0,
1999-10-17, 02:41:00,VALID,0,VALID,100,VALID,-0.0169808,VALID,19.3023,VALID,208,VALID,0,
1999-10-17, 02:42:00,VALID,0,VALID,100,VALID,0.0169808,VALID,19.2919,VALID,194,VALID,0,
1999-10-17, 02:43:00,VALID,0,VALID,100,VALID,0.0169808,VALID,19.2693,VALID,179,VALID,0,
1999-10-17, 02:44:00,VALID,0,VALID,100,VALID,0.0169808,VALID,19.2429,VALID,163,VALID,0,
1999-10-17, 02:45:00,VALID,0,VALID,100,VALID,0,VALID,19.2402,VALID,146,VALID,0.451758,
1999-10-17, 02:46:00,VALID,0,VALID,100,VALID,0.0169808,VALID,19.2364,VALID,143,VALID,1.13194,
1999-10-17, 02:47:00,VALID,0,VALID,100,VALID,0,VALID,19.2307,VALID,153,VALID,0.787891,
1999-10-17, 02:48:00,VALID,0,VALID,100,VALID,0,VALID,19.217,VALID,148,VALID,0.180689,
1999-10-17, 02:49:01,VALID,0,VALID,100,VALID,0,VALID,19.2039,VALID,187,VALID,0.422492,
1999-10-17, 02:50:00,VALID,0,VALID,100,VALID,0.0169808,VALID,19.2011,VALID,192,VALID,0.580295,
1999-10-17, 02:51:00,VALID,0,VALID,100,VALID,0,VALID,19.1815,VALID,207,VALID,0.601116,
1999-10-17, 02:52:00,VALID,0,VALID,100,VALID,0.0169808,VALID,19.1755,VALID,211,VALID,0.684416,
1999-10-17, 02:53:00,VALID,0,VALID,100,VALID,0.0339617,VALID,19.1621,VALID,206,VALID,0.606291,
1999-10-17, 02:54:00,VALID,0,VALID,100,VALID,0,VALID,19.1494,VALID,198,VALID,0.530405,
1999-10-17, 02:55:00,VALID,0,VALID,100,VALID,0.0339617,VALID,19.1524,VALID,182,VALID,0.462171,
1999-10-17, 02:56:00,VALID,0,VALID,100,VALID,0,VALID,19.1431,VALID,178,VALID,0.346628,
1999-10-17, 02:57:00,VALID,0,VALID,100,VALID,-0.0169808,VALID,19.1367,VALID,170,VALID,0.530488,
1999-10-17, 02:58:00,VALID,0,VALID,100,VALID,-0.0509425,VALID,19.1173,VALID,165,VALID,0.61582,
1999-10-17, 02:59:00,VALID,0,VALID,100,VALID,0.0169808,VALID,19.0743,VALID,186,VALID,0.652549,
1999-10-17, 03:00:00,VALID,0,VALID,100,VALID,0,VALID,19.0688,VALID,200,VALID,0.815234,
1999-10-17, 03:01:00,VALID,0,VALID,100,VALID,0,VALID,19.0653,VALID,203,VALID,0.802083,
1999-10-17, 03:02:00,VALID,0,VALID,100,VALID,-0.0169808,VALID,19.075,VALID,206,VALID,0.877344,
1999-10-17, 03:03:00,VALID,0,VALID,100,VALID,0,VALID,19.075,VALID,208,VALID,0.769631,
1999-10-17, 03:04:00,VALID,0,VALID,100,VALID,-0.0169808,VALID,19.0976,VALID,204,VALID,0.643914,
1999-10-17, 03:05:00,VALID,0,VALID,100,VALID,0,VALID,19.0944,VALID,202,VALID,0.808811,
1999-10-17, 03:06:00,VALID,0,VALID,100,VALID,-0.0169808,VALID,19.0914,VALID,198,VALID,0.561607,
1999-10-17, 03:07:00,VALID,0,VALID,100,VALID,0,VALID,19.0852,VALID,185,VALID,0.641242,
1999-10-17, 03:08:00,VALID,0,VALID,100,VALID,-0.0169808,VALID,19.0561,VALID,186,VALID,0.616776,
1999-10-17, 03:09:00,VALID,0,VALID,100,VALID,0,VALID,19.0528,VALID,181,VALID,0.780194,
1999-10-17, 03:10:00,VALID,0,VALID,100,VALID,-0.0169808,VALID,19.0725,VALID,170,VALID,0.651933,
1999-10-17, 03:11:00,VALID,0,VALID,100,VALID,-0.0169808,VALID,19.0755,VALID,166,VALID,0.317845,
1999-10-17, 03:12:00,VALID,0,VALID,100,VALID,-0.0169808,VALID,19.0688,VALID,164,VALID,0.378811,
1999-10-17, 03:13:00,VALID,0,VALID,100,VALID,0,VALID,19.0431,VALID,158,VALID,0.355664,
1999-10-17, 03:14:00,VALID,0,VALID,100,VALID,-0.0169808,VALID,19.03,VALID,185,VALID,0.510896,
1999-10-17, 03:15:00,VALID,0,VALID,100,VALID,-0.0169808,VALID,19.0332,VALID,175,VALID,0.284375,
1999-10-17, 03:16:00,VALID,0,VALID,100,VALID,0,VALID,19.0332,VALID,174,VALID,0.476345,
1999-10-17, 03:17:00,VALID,0,VALID,100,VALID,0,VALID,19.0265,VALID,173,VALID,0.478906,
1999-10-17, 03:18:00,VALID,0,VALID,100,VALID,0,VALID,19.0429,VALID,157,VALID,0.692107,
1999-10-17, 03:19:00,VALID,0,VALID,100,VALID,-0.0169808,VALID,19.03,VALID,151,VALID,0.67722,
1999-10-17, 03:20:00,VALID,0,VALID,100,VALID,-0.0169808,VALID,19.0168,VALID,152,VALID,0.0677083,
1999-10-17, 03:21:00,VALID,0,VALID,100,VALID,-0.0169808,VALID,19.0105,VALID,150,VALID,0.483482,
1999-10-17, 03:22:00,VALID,0,VALID,100,VALID,-0.0339617,VALID,18.9787,VALID,143,VALID,0.393914,
1999-10-17, 03:23:00,VALID,0,VALID,100,VALID,-0.0339617,VALID,18.9759,VALID,152,VALID,0.315584,
1999-10-17, 03:24:00,VALID,0,VALID,100,VALID,-0.0169808,VALID,18.9561,VALID,166,VALID,0.120988,
1999-10-17, 03:25:00,VALID,0,VALID,100,VALID,-0.0169808,VALID,18.9463,VALID,168,VALID,0,
1999-10-17, 03:26:00,VALID,0,VALID,100,VALID,-0.0509425,VALID,18.9429,VALID,168,VALID,0,
1999-10-17, 03:27:00,VALID,0,VALID,100,VALID,-0.0509425,VALID,18.9401,VALID,167,VALID,0,
1999-10-17, 03:28:00,VALID,0,VALID,100,VALID,-0.0169808,VALID,18.9535,VALID,168,VALID,0,
1999-10-17, 03:29:00,VALID,0,VALID,100,VALID,-0.0339617,VALID,18.9304,VALID,201,VALID,0,
1999-10-17, 03:30:00,VALID,0,VALID,100,VALID,-0.0169808,VALID,18.9232,VALID,211,VALID,0,
1999-10-17, 03:31:00,VALID,0,VALID,100,VALID,-0.0339617,VALID,18.9108,VALID,211,VALID,0,
1999-10-17, 03:32:00,VALID,0,VALID,100,VALID,-0.0509425,VALID,18.8879,VALID,197,VALID,0,
1999-10-17, 03:33:01,VALID,0,VALID,100,VALID,0,VALID,18.911,VALID,247,VALID,0,
1999-10-17, 03:34:01,VALID,0,VALID,100,VALID,-0.0509425,VALID,18.9237,VALID,211,VALID,0,
1999-10-17, 03:35:00,VALID,0,VALID,100,VALID,-0.0849042,VALID,18.9399,VALID,219,VALID,0,
1999-10-17, 03:36:00,VALID,0,VALID,100,VALID,-0.0339617,VALID,18.9558,VALID,234,VALID,0,
1999-10-17, 03:37:00,VALID,0,VALID,100,VALID,-0.0339617,VALID,18.9456,VALID,240,VALID,0.310033,
1999-10-17, 03:38:00,VALID,0,VALID,100,VALID,-0.0169808,VALID,19.0078,VALID,252,VALID,0.545847,
1999-10-17, 03:39:00,VALID,0,VALID,100,VALID,-0.0169808,VALID,19.0205,VALID,209,VALID,0,
1999-10-17, 03:40:00,VALID,0,VALID,100,VALID,-0.0169808,VALID,19.0105,VALID,205,VALID,0,
1999-10-17, 03:41:00,VALID,0,VALID,100,VALID,0,VALID,18.9979,VALID,209,VALID,0,
1999-10-17, 03:42:00,VALID,0,VALID,100,VALID,-0.0339617,VALID,18.9782,VALID,211,VALID,0,
1999-10-17, 03:43:00,VALID,0,VALID,100,VALID,-0.0509425,VALID,18.9787,VALID,225,VALID,0,
1999-10-17, 03:44:00,VALID,0,VALID,100,VALID,-0.0169808,VALID,18.969,VALID,225,VALID,0,
1999-10-17, 03:45:01,VALID,0,VALID,100,VALID,-0.0339617,VALID,18.9528,VALID,225,VALID,0,
1999-10-17, 03:46:00,VALID,0,VALID,100,VALID,-0.0169808,VALID,18.9401,VALID,226,VALID,0,
1999-10-17, 03:47:00,VALID,0,VALID,100,VALID,-0.0339617,VALID,18.9269,VALID,226,VALID,0,
1999-10-17, 03:48:00,VALID,0,VALID,100,VALID,-0.0169808,VALID,18.9078,VALID,227,VALID,0,
1999-10-17, 03:49:00,VALID,0,VALID,100,VALID,-0.0509425,VALID,18.9138,VALID,231,VALID,0,
1999-10-17, 03:50:00,VALID,0,VALID,100,VALID,0,VALID,18.9299,VALID,230,VALID,0,
1999-10-17, 03:51:00,VALID,0,VALID,100,VALID,-0.0339617,VALID,18.9396,VALID,228,VALID,0,
1999-10-17, 03:52:00,VALID,0,VALID,100,VALID,0,VALID,18.9593,VALID,235,VALID,0,
1999-10-17, 03:53:00,VALID,0,VALID,100,VALID,-0.0509425,VALID,18.9792,VALID,237,VALID,0,
1999-10-17, 03:54:00,VALID,0,VALID,100,VALID,0,VALID,18.9884,VALID,253,VALID,0.29962,
1999-10-17, 03:55:01,VALID,0,VALID,100,VALID,-0.0509425,VALID,19.0011,VALID,235,VALID,0.702508,
1999-10-17, 03:56:01,VALID,0,VALID,100,VALID,-0.0339617,VALID,19.0048,VALID,236,VALID,0.854441,
1999-10-17, 03:57:00,VALID,0,VALID,100,VALID,-0.0169808,VALID,19.005,VALID,227,VALID,0.583841,
1999-10-17, 03:58:00,VALID,0,VALID,100,VALID,-0.0169808,VALID,18.9919,VALID,219,VALID,0.488672,
1999-10-17, 03:59:00,VALID,0,VALID,100,VALID,-0.0509425,VALID,18.9953,VALID,219,VALID,0.751234,
1999-10-17, 04:00:00,VALID,0,VALID,100,VALID,-0.0339617,VALID,18.9658,VALID,224,VALID,0.541797,
1999-10-17, 04:01:00,VALID,0,VALID,100,VALID,-0.0169808,VALID,18.9431,VALID,231,VALID,0.638672,
1999-10-17, 04:02:00,VALID,0,VALID,100,VALID,-0.0339617,VALID,18.9431,VALID,238,VALID,0.807813,
1999-10-17, 04:03:00,VALID,0,VALID,100,VALID,-0.0679233,VALID,18.9623,VALID,236,VALID,0.807292,
1999-10-17, 04:04:00,VALID,0,VALID,100,VALID,-0.0339617,VALID,18.9593,VALID,225,VALID,0.803043,
1999-10-17, 04:05:00,VALID,0,VALID,100,VALID,0,VALID,18.9526,VALID,223,VALID,0.760634,
1999-10-17, 04:06:00,VALID,0,VALID,100,VALID,-0.0169808,VALID,18.9362,VALID,223,VALID,0.81183,
1999-10-17, 04:07:01,VALID,0,VALID,100,VALID,0,VALID,18.9396,VALID,220,VALID,0.857936,
1999-10-17, 04:08:00,VALID,0,VALID,100,VALID,-0.0169808,VALID,18.9364,VALID,226,VALID,0.91324,
1999-10-17, 04:09:00,VALID,0,VALID,100,VALID,-0.0339617,VALID,18.9431,VALID,225,VALID,0.817145,
1999-10-17, 04:10:00,VALID,0,VALID,100,VALID,-0.0169808,VALID,18.9431,VALID,228,VALID,1.06373,
1999-10-17, 04:11:00,VALID,0,VALID,100,VALID,-0.0169808,VALID,18.9528,VALID,212,VALID,1.10362,
1999-10-17, 04:12:00,VALID,0,VALID,100,VALID,-0.0169808,VALID,18.959,VALID,221,VALID,1.22809,
1999-10-17, 04:13:00,VALID,0,VALID,100,VALID,-0.0339617,VALID,18.962,VALID,205,VALID,1.25859,
1999-10-17, 04:14:00,VALID,0,VALID,100,VALID,-0.0339617,VALID,18.9889,VALID,218,VALID,1.01748,
1999-10-17, 04:15:00,VALID,0,VALID,100,VALID,-0.0169808,VALID,18.9884,VALID,217,VALID,0.899805,
1999-10-17, 04:16:00,VALID,0,VALID,100,VALID,-0.0679233,VALID,18.9822,VALID,198,VALID,0.887153,
1999-10-17, 04:17:00,VALID,0,VALID,100,VALID,-0.0509425,VALID,18.9787,VALID,185,VALID,0.912305,
1999-10-17, 04:18:01,VALID,0,VALID,100,VALID,-0.0679233,VALID,18.9725,VALID,189,VALID,0.71254,
1999-10-17, 04:19:00,VALID,0,VALID,100,VALID,-0.0679233,VALID,18.9662,VALID,184,VALID,0.880757,
1999-10-17, 04:20:00,VALID,0,VALID,100,VALID,-0.0339617,VALID,18.9563,VALID,187,VALID,1.05946,
1999-10-17, 04:21:00,VALID,0,VALID,100,VALID,-0.0339617,VALID,18.9665,VALID,227,VALID,0.723437,